STARLINK-36535

Last updated on Mon Mar 30 2026 00:02:05 GMT+0000 (Coordinated Universal Time)

1 67986U 26039A 26088.16668981 .00047227 00000+0 16737-2 0 9992 2 67986 42.9993 299.4745 0001776 270.1467 174.0403 15.28374610 6004
UTC large
Height (km)
Speed (km/s)
/
Latitude / Longitude
Inclination (degrees)
Orbital Period (minutes)
Azimuth
Elevation
Range (km)
Doppler Factor

Next 0 passes for location: London (51.5072 / 0.1276)

Sorry there are no passes over London.